Station Historical Data
Daily Summary for July 3, 2017 Units:  English    Metric   Both
« Previous Day
Next Day »
Daily Weekly Monthly Yearly Custom
  High: Low: Average:
Temperature: 85.5 °F 68.2 °F 74.9 °F
Dew Point: 61.1 °F 48.8 °F 54.6 °F
Humidity: 68 % 30 % 51 %
Wind Speed: 11.0 mph 0.0 mph 2.1 mph
Wind Gust: 14.0 mph - -
Wind:- - SSE
Pressure: 29.99 in 29.91 in -
Precipitation: 0.00 in    
Historical Graphs
 
 
Tabular Data for July 3, 2017
Time Temperature Dew Point Pressure Wind Wind Speed Wind Gust Humidity Rainfall Rate (Hourly) solar
00:01 70.9 °F 55.9 °F 29.92 in ESE 4.0 mph 5.0 mph 59 % 0.00 in 0.00 W/m2
00:06 70.9 °F 55.9 °F 29.92 in East 5.0 mph 7.0 mph 59 % 0.00 in 0.00 W/m2
00:11 70.8 °F 55.8 °F 29.92 in Calm   2.0 mph 59 % 0.00 in 0.00 W/m2
00:13 70.8 °F 55.8 °F 29.92 in East 1.0 mph 8.0 mph 59 % 0.00 in 0.00 W/m2
00:18 70.8 °F 55.8 °F 29.92 in ESE 4.0 mph 11.0 mph 59 % 0.00 in 0.00 W/m2
00:23 70.8 °F 55.8 °F 29.92 in East 5.0 mph 9.0 mph 59 % 0.00 in 0.00 W/m2
00:28 70.8 °F 55.8 °F 29.92 in ESE 7.0 mph 9.0 mph 59 % 0.00 in 0.00 W/m2
00:30 70.7 °F 55.7 °F 29.92 in Calm   9.0 mph 59 % 0.00 in 0.00 W/m2
00:35 70.7 °F 55.7 °F 29.92 in East 7.0 mph 9.0 mph 59 % 0.00 in 0.00 W/m2
00:40 70.7 °F 55.7 °F 29.92 in Calm   12.0 mph 59 % 0.00 in 0.00 W/m2
00:45 70.6 °F 55.6 °F 29.92 in Calm   8.0 mph 59 % 0.00 in 0.00 W/m2
00:50 70.6 °F 55.6 °F 29.92 in Calm   8.0 mph 59 % 0.00 in 0.00 W/m2
00:55 70.6 °F 55.6 °F 29.92 in Calm   9.0 mph 59 % 0.00 in 0.00 W/m2
01:00 70.6 °F 55.6 °F 29.92 in ESE 11.0 mph 12.0 mph 59 % 0.00 in 0.00 W/m2
01:05 70.5 °F 56.0 °F 29.92 in ESE 4.0 mph 8.0 mph 60 % 0.00 in 0.00 W/m2
01:10 70.4 °F 55.9 °F 29.92 in Calm   11.0 mph 60 % 0.00 in 0.00 W/m2
01:16 70.4 °F 55.9 °F 29.92 in Calm   11.0 mph 60 % 0.00 in 0.00 W/m2
01:21 70.4 °F 55.9 °F 29.92 in ESE 5.0 mph 9.0 mph 60 % 0.00 in 0.00 W/m2
01:26 70.4 °F 55.9 °F 29.92 in ESE 2.0 mph 12.0 mph 60 % 0.00 in 0.00 W/m2
01:31 70.4 °F 55.9 °F 29.92 in ESE 8.0 mph 8.0 mph 60 % 0.00 in 0.00 W/m2
01:36 70.4 °F 55.9 °F 29.92 in Calm     60 % 0.00 in 0.00 W/m2
01:41 70.3 °F 55.8 °F 29.92 in East 9.0 mph 11.0 mph 60 % 0.00 in 0.00 W/m2
01:46 70.3 °F 55.8 °F 29.91 in Calm   1.0 mph 60 % 0.00 in 0.00 W/m2
01:51 70.3 °F 55.8 °F 29.92 in East 5.0 mph 7.0 mph 60 % 0.00 in 0.00 W/m2
01:56 70.2 °F 55.7 °F 29.91 in East 5.0 mph 8.0 mph 60 % 0.00 in 0.00 W/m2
02:01 70.2 °F 55.7 °F 29.91 in Calm   5.0 mph 60 % 0.00 in 0.00 W/m2
02:06 70.2 °F 55.7 °F 29.91 in ESE 4.0 mph 8.0 mph 60 % 0.00 in 0.00 W/m2
02:11 70.2 °F 55.7 °F 29.91 in Calm   4.0 mph 60 % 0.00 in 0.00 W/m2
02:16 70.1 °F 55.6 °F 29.91 in ESE 7.0 mph 8.0 mph 60 % 0.00 in 0.00 W/m2
02:21 70.1 °F 55.6 °F 29.91 in ESE 5.0 mph 5.0 mph 60 % 0.00 in 0.00 W/m2
02:26 70.1 °F 55.6 °F 29.91 in ESE 5.0 mph 5.0 mph 60 % 0.00 in 0.00 W/m2
02:31 70.1 °F 55.6 °F 29.91 in ESE 5.0 mph 5.0 mph 60 % 0.00 in 0.00 W/m2
02:36 70.0 °F 55.5 °F 29.91 in Calm   2.0 mph 60 % 0.00 in 0.00 W/m2
02:41 70.0 °F 55.5 °F 29.91 in ESE 2.0 mph 5.0 mph 60 % 0.00 in 0.00 W/m2
02:46 69.9 °F 55.4 °F 29.91 in ESE 4.0 mph 4.0 mph 60 % 0.00 in 0.00 W/m2
02:51 69.8 °F 55.3 °F 29.91 in Calm   7.0 mph 60 % 0.00 in 0.00 W/m2
02:56 69.8 °F 55.3 °F 29.91 in Calm   1.0 mph 60 % 0.00 in 0.00 W/m2
03:01 69.7 °F 55.2 °F 29.91 in Calm   1.0 mph 60 % 0.00 in 0.00 W/m2
03:04 69.7 °F 55.2 °F 29.91 in ESE 2.0 mph 7.0 mph 60 % 0.00 in 0.00 W/m2
03:09 69.6 °F 55.6 °F 29.91 in ESE 7.0 mph 8.0 mph 61 % 0.00 in 0.00 W/m2
03:14 69.5 °F 55.5 °F 29.91 in East 1.0 mph 8.0 mph 61 % 0.00 in 0.00 W/m2
03:19 69.5 °F 55.5 °F 29.91 in Calm   7.0 mph 61 % 0.00 in 0.00 W/m2
03:24 69.4 °F 55.4 °F 29.91 in East 1.0 mph 8.0 mph 61 % 0.00 in 0.00 W/m2
03:30 69.3 °F 55.3 °F 29.91 in ESE 1.0 mph 9.0 mph 61 % 0.00 in 0.00 W/m2
03:35 69.2 °F 55.2 °F 29.91 in Calm   8.0 mph 61 % 0.00 in 0.00 W/m2
03:40 69.1 °F 55.1 °F 29.91 in East 6.0 mph 9.0 mph 61 % 0.00 in 0.00 W/m2
03:45 69.0 °F 55.0 °F 29.91 in Calm   11.0 mph 61 % 0.00 in 0.00 W/m2
03:50 69.0 °F 55.0 °F 29.91 in Calm   11.0 mph 61 % 0.00 in 0.00 W/m2
03:55 68.9 °F 54.9 °F 29.91 in East 4.0 mph 8.0 mph 61 % 0.00 in 0.00 W/m2
04:00 68.9 °F 55.4 °F 29.91 in East 2.0 mph 11.0 mph 62 % 0.00 in 0.00 W/m2
04:05 68.8 °F 55.3 °F 29.91 in East 1.0 mph 11.0 mph 62 % 0.00 in 0.00 W/m2
04:10 68.8 °F 54.8 °F 29.91 in East 5.0 mph 9.0 mph 61 % 0.00 in 0.00 W/m2
04:15 68.8 °F 55.3 °F 29.91 in East 6.0 mph 9.0 mph 62 % 0.00 in 0.00 W/m2
04:20 68.8 °F 55.3 °F 29.91 in East 9.0 mph 12.0 mph 62 % 0.00 in 0.00 W/m2
04:25 68.8 °F 55.3 °F 29.91 in Calm   14.0 mph 62 % 0.00 in 0.00 W/m2
04:30 68.7 °F 55.2 °F 29.91 in Calm   12.0 mph 62 % 0.00 in 0.00 W/m2
04:35 68.7 °F 54.7 °F 29.91 in East 1.0 mph 8.0 mph 61 % 0.00 in 0.00 W/m2
04:40 68.7 °F 55.2 °F 29.91 in Calm   11.0 mph 62 % 0.00 in 0.00 W/m2
04:45 68.7 °F 54.7 °F 29.91 in Calm   12.0 mph 61 % 0.00 in 0.00 W/m2
04:50 68.7 °F 54.7 °F 29.91 in ESE 1.0 mph 12.0 mph 61 % 0.00 in 0.00 W/m2
04:55 68.7 °F 54.7 °F 29.91 in East 11.0 mph 12.0 mph 61 % 0.00 in 0.00 W/m2
05:00 68.7 °F 54.7 °F 29.91 in Calm   14.0 mph 61 % 0.00 in 0.00 W/m2
05:05 68.7 °F 54.7 °F 29.92 in Calm   13.0 mph 61 % 0.00 in 0.00 W/m2
05:10 68.8 °F 54.8 °F 29.92 in Calm   11.0 mph 61 % 0.00 in 0.00 W/m2
05:15 68.7 °F 54.7 °F 29.92 in Calm   13.0 mph 61 % 0.00 in 0.00 W/m2
05:20 68.7 °F 54.7 °F 29.92 in East 7.0 mph 13.0 mph 61 % 0.00 in 0.00 W/m2
05:25 68.7 °F 54.7 °F 29.92 in Calm   12.0 mph 61 % 0.00 in 0.00 W/m2
05:30 68.7 °F 54.7 °F 29.92 in Calm   12.0 mph 61 % 0.00 in 0.00 W/m2
05:35 68.6 °F 54.6 °F 29.92 in East 4.0 mph 12.0 mph 61 % 0.00 in 0.00 W/m2
05:41 68.6 °F 54.6 °F 29.92 in East 4.0 mph 11.0 mph 61 % 0.00 in 5.00 W/m2
05:46 68.6 °F 54.6 °F 29.92 in ESE 2.0 mph 14.0 mph 61 % 0.00 in 5.00 W/m2
05:51 68.5 °F 54.5 °F 29.92 in Calm   12.0 mph 61 % 0.00 in 9.00 W/m2
05:56 68.5 °F 54.5 °F 29.92 in East 8.0 mph 9.0 mph 61 % 0.00 in 12.00 W/m2
06:01 68.4 °F 54.4 °F 29.92 in ESE 2.0 mph 14.0 mph 61 % 0.00 in 16.00 W/m2
06:06 68.4 °F 54.4 °F 29.92 in Calm   13.0 mph 61 % 0.00 in 18.00 W/m2
06:11 68.3 °F 54.3 °F 29.92 in Calm     61 % 0.00 in 21.00 W/m2
06:16 68.3 °F 54.3 °F 29.92 in ESE 6.0 mph 9.0 mph 61 % 0.00 in 26.00 W/m2
06:21 68.2 °F 54.2 °F 29.92 in ESE 6.0 mph 9.0 mph 61 % 0.00 in 33.00 W/m2
06:26 68.3 °F 54.8 °F 29.92 in Calm     62 % 0.00 in 42.00 W/m2
06:31 68.2 °F 54.7 °F 29.93 in Calm   2.0 mph 62 % 0.00 in 53.00 W/m2
06:36 68.2 °F 54.7 °F 29.93 in ESE 6.0 mph 8.0 mph 62 % 0.00 in 63.00 W/m2
06:41 68.2 °F 54.7 °F 29.93 in ESE 9.0 mph 9.0 mph 62 % 0.00 in 77.00 W/m2
06:46 68.2 °F 54.7 °F 29.93 in East 5.0 mph 7.0 mph 62 % 0.00 in 90.00 W/m2
06:51 68.2 °F 54.7 °F 29.93 in ESE 7.0 mph 9.0 mph 62 % 0.00 in 107.00 W/m2
06:56 68.2 °F 54.7 °F 29.93 in East 6.0 mph 8.0 mph 62 % 0.00 in 123.00 W/m2
06:57 68.2 °F 54.7 °F 29.93 in Calm   8.0 mph 62 % 0.00 in 125.00 W/m2
07:02 68.2 °F 54.7 °F 29.94 in ESE 5.0 mph 9.0 mph 62 % 0.00 in 144.00 W/m2
07:07 68.2 °F 55.1 °F 29.94 in Calm   12.0 mph 63 % 0.00 in 158.00 W/m2
07:12 68.3 °F 55.2 °F 29.94 in ESE 2.0 mph 7.0 mph 63 % 0.00 in 176.00 W/m2
07:17 68.3 °F 55.2 °F 29.94 in ESE 5.0 mph 11.0 mph 63 % 0.00 in 193.00 W/m2
07:22 68.3 °F 55.7 °F 29.94 in ESE 7.0 mph 9.0 mph 64 % 0.00 in 211.00 W/m2
07:27 68.3 °F 55.7 °F 29.94 in ESE 1.0 mph 9.0 mph 64 % 0.00 in 229.00 W/m2
07:32 68.3 °F 55.7 °F 29.94 in East 5.0 mph 9.0 mph 64 % 0.00 in 246.00 W/m2
07:37 68.4 °F 55.8 °F 29.94 in ESE 1.0 mph 11.0 mph 64 % 0.00 in 267.00 W/m2
07:42 68.5 °F 55.9 °F 29.94 in East 6.0 mph 8.0 mph 64 % 0.00 in 279.00 W/m2
07:47 68.5 °F 56.3 °F 29.94 in East 5.0 mph 13.0 mph 65 % 0.00 in 295.00 W/m2
07:52 68.6 °F 56.4 °F 29.94 in Calm   7.0 mph 65 % 0.00 in 311.00 W/m2
07:57 68.7 °F 56.5 °F 29.95 in Calm   8.0 mph 65 % 0.00 in 325.00 W/m2
08:02 68.9 °F 56.7 °F 29.94 in Calm   9.0 mph 65 % 0.00 in 336.00 W/m2
08:07 69.0 °F 57.2 °F 29.95 in ESE 1.0 mph 8.0 mph 66 % 0.00 in 353.00 W/m2
08:12 69.1 °F 57.3 °F 29.95 in ESE 1.0 mph 6.0 mph 66 % 0.00 in 371.00 W/m2
08:17 69.3 °F 57.5 °F 29.95 in ESE 4.0 mph 7.0 mph 66 % 0.00 in 390.00 W/m2
08:22 69.4 °F 57.6 °F 29.95 in ESE 4.0 mph 8.0 mph 66 % 0.00 in 403.00 W/m2
08:27 69.6 °F 58.2 °F 29.95 in Calm   5.0 mph 67 % 0.00 in 420.00 W/m2
08:32 69.7 °F 58.3 °F 29.95 in ESE 5.0 mph 5.0 mph 67 % 0.00 in 432.00 W/m2
08:37 69.9 °F 58.9 °F 29.95 in Calm   6.0 mph 68 % 0.00 in 450.00 W/m2
08:42 70.1 °F 58.7 °F 29.95 in ESE 1.0 mph 6.0 mph 67 % 0.00 in 466.00 W/m2
08:47 70.3 °F 58.4 °F 29.95 in Calm   1.0 mph 66 % 0.00 in 483.00 W/m2
08:52 70.5 °F 58.6 °F 29.95 in ESE 6.0 mph 7.0 mph 66 % 0.00 in 499.00 W/m2
08:57 70.7 °F 58.8 °F 29.96 in Calm   2.0 mph 66 % 0.00 in 517.00 W/m2
09:02 71.0 °F 59.1 °F 29.96 in Calm   2.0 mph 66 % 0.00 in 531.00 W/m2
09:07 71.2 °F 58.8 °F 29.96 in Calm   1.0 mph 65 % 0.00 in 547.00 W/m2
09:12 71.5 °F 58.3 °F 29.96 in ESE 1.0 mph 5.0 mph 63 % 0.00 in 561.00 W/m2
09:17 71.7 °F 58.0 °F 29.96 in Calm   1.0 mph 62 % 0.00 in 575.00 W/m2
09:22 72.1 °F 58.4 °F 29.96 in ESE 4.0 mph 7.0 mph 62 % 0.00 in 587.00 W/m2
09:27 72.5 °F 57.8 °F 29.96 in Calm   4.0 mph 60 % 0.00 in 603.00 W/m2
09:32 72.8 °F 58.6 °F 29.96 in ESE 2.0 mph 6.0 mph 61 % 0.00 in 617.00 W/m2
09:37 73.1 °F 58.9 °F 29.96 in Calm   6.0 mph 61 % 0.00 in 631.00 W/m2
09:42 73.4 °F 58.7 °F 29.96 in Calm   7.0 mph 60 % 0.00 in 645.00 W/m2
09:47 73.7 °F 58.5 °F 29.96 in ESE 1.0 mph 4.0 mph 59 % 0.00 in 656.00 W/m2
09:49 73.7 °F 58.5 °F 29.96 in Calm   4.0 mph 59 % 0.00 in 661.00 W/m2
09:54 74.1 °F 58.4 °F 29.96 in ESE 4.0 mph 7.0 mph 58 % 0.00 in 673.00 W/m2
09:59 74.4 °F 58.2 °F 29.96 in Calm   5.0 mph 57 % 0.00 in 687.00 W/m2
10:04 74.8 °F 59.5 °F 29.96 in Calm   6.0 mph 59 % 0.00 in 701.00 W/m2
10:09 75.2 °F 60.4 °F 29.96 in Calm   4.0 mph 60 % 0.00 in 714.00 W/m2
10:14 75.5 °F 60.2 °F 29.96 in Calm     59 % 0.00 in 726.00 W/m2
10:19 75.8 °F 60.0 °F 29.96 in ESE 2.0 mph 6.0 mph 58 % 0.00 in 738.00 W/m2
10:24 76.2 °F 58.9 °F 29.96 in ESE 2.0 mph 4.0 mph 55 % 0.00 in 749.00 W/m2
10:29 76.5 °F 59.2 °F 29.97 in Calm     55 % 0.00 in 758.00 W/m2
10:34 76.7 °F 58.3 °F 29.97 in Calm   6.0 mph 53 % 0.00 in 770.00 W/m2
10:39 77.1 °F 59.7 °F 29.97 in Calm   5.0 mph 55 % 0.00 in 780.00 W/m2
10:44 77.4 °F 58.4 °F 29.97 in ESE 5.0 mph 7.0 mph 52 % 0.00 in 789.00 W/m2
10:49 77.8 °F 59.8 °F 29.97 in SE 6.0 mph 8.0 mph 54 % 0.00 in 798.00 W/m2
10:54 78.1 °F 59.6 °F 29.97 in Calm   6.0 mph 53 % 0.00 in 807.00 W/m2
10:59 78.5 °F 60.5 °F 29.97 in Calm   9.0 mph 54 % 0.00 in 816.00 W/m2
11:04 78.9 °F 60.3 °F 29.97 in SSW 3.0 mph 7.0 mph 53 % 0.00 in 823.00 W/m2
11:09 79.1 °F 61.0 °F 29.97 in Calm   6.0 mph 54 % 0.00 in 828.00 W/m2
11:14 79.3 °F 60.7 °F 29.97 in Calm   5.0 mph 53 % 0.00 in 838.00 W/m2
11:19 79.2 °F 61.1 °F 29.97 in Calm   5.0 mph 54 % 0.00 in 847.00 W/m2
11:24 79.1 °F 60.0 °F 29.98 in SW 5.0 mph 5.0 mph 52 % 0.00 in 851.00 W/m2
11:29 79.1 °F 60.5 °F 29.98 in Calm   5.0 mph 53 % 0.00 in 861.00 W/m2
11:34 79.3 °F 59.6 °F 29.98 in Calm   5.0 mph 51 % 0.00 in 870.00 W/m2
11:40 79.4 °F 58.6 °F 29.98 in Calm   7.0 mph 49 % 0.00 in 877.00 W/m2
11:45 79.4 °F 58.6 °F 29.98 in Calm   7.0 mph 49 % 0.00 in 884.00 W/m2
11:50 79.5 °F 59.2 °F 29.98 in Calm   4.0 mph 50 % 0.00 in 889.00 W/m2
11:55 79.6 °F 58.8 °F 29.99 in Calm   5.0 mph 49 % 0.00 in 896.00 W/m2
12:00 80.0 °F 58.0 °F 29.99 in Calm   8.0 mph 47 % 0.00 in 902.00 W/m2
12:05 80.3 °F 58.8 °F 29.99 in WSW 6.0 mph 10.0 mph 48 % 0.00 in 904.00 W/m2
12:10 80.7 °F 58.6 °F 29.99 in SW 3.0 mph 9.0 mph 47 % 0.00 in 909.00 W/m2
12:15 80.8 °F 59.3 °F 29.99 in Calm   6.0 mph 48 % 0.00 in 916.00 W/m2
12:20 81.0 °F 58.9 °F 29.99 in SW 6.0 mph 8.0 mph 47 % 0.00 in 921.00 W/m2
12:25 81.1 °F 57.2 °F 29.99 in SW 5.0 mph 10.0 mph 44 % 0.00 in 923.00 W/m2
12:30 81.3 °F 56.7 °F 29.99 in Calm   7.0 mph 43 % 0.00 in 930.00 W/m2
12:35 81.7 °F 56.4 °F 29.99 in Calm   11.0 mph 42 % 0.00 in 928.00 W/m2
12:40 82.1 °F 56.8 °F 29.98 in WSW 1.0 mph 8.0 mph 42 % 0.00 in 930.00 W/m2
12:45 82.5 °F 56.5 °F 29.99 in SW 5.0 mph 11.0 mph 41 % 0.00 in 937.00 W/m2
12:46 82.5 °F 56.5 °F 29.98 in Calm   11.0 mph 41 % 0.00 in 935.00 W/m2
12:51 82.9 °F 54.0 °F 29.99 in South 5.0 mph 9.0 mph 37 % 0.00 in 939.00 W/m2
12:56 83.4 °F 52.9 °F 29.99 in SW 2.0 mph 14.0 mph 35 % 0.00 in 935.00 W/m2
13:01 83.7 °F 53.2 °F 29.99 in WSW 1.0 mph 6.0 mph 35 % 0.00 in 935.00 W/m2
13:06 83.8 °F 55.5 °F 29.99 in SSE 7.0 mph 9.0 mph 38 % 0.00 in 933.00 W/m2
13:11 84.3 °F 54.5 °F 29.99 in South 5.0 mph 5.0 mph 36 % 0.00 in 933.00 W/m2
13:16 84.8 °F 53.3 °F 29.99 in Calm   1.0 mph 34 % 0.00 in 939.00 W/m2
13:21 85.1 °F 54.4 °F 29.99 in South 11.0 mph 11.0 mph 35 % 0.00 in 937.00 W/m2
13:26 85.2 °F 52.9 °F 29.99 in Calm   4.0 mph 33 % 0.00 in 928.00 W/m2
13:31 85.3 °F 54.6 °F 29.99 in South 4.0 mph 4.0 mph 35 % 0.00 in 923.00 W/m2
13:36 85.4 °F 54.7 °F 29.99 in Calm     35 % 0.00 in 926.00 W/m2
13:41 84.9 °F 52.6 °F 29.99 in SSE 5.0 mph 7.0 mph 33 % 0.00 in 919.00 W/m2
13:46 84.8 °F 54.1 °F 29.98 in SSE 8.0 mph 8.0 mph 35 % 0.00 in 923.00 W/m2
13:51 84.9 °F 52.6 °F 29.98 in WSW 6.0 mph 9.0 mph 33 % 0.00 in 918.00 W/m2
13:56 84.9 °F 54.2 °F 29.98 in SW 5.0 mph 5.0 mph 35 % 0.00 in 916.00 W/m2
14:01 85.1 °F 52.0 °F 29.98 in SSE 2.0 mph 4.0 mph 32 % 0.00 in 907.00 W/m2
14:06 85.2 °F 53.7 °F 29.98 in WSW 5.0 mph 7.0 mph 34 % 0.00 in 904.00 W/m2
14:11 85.2 °F 52.9 °F 29.98 in South 3.0 mph 4.0 mph 33 % 0.00 in 900.00 W/m2
14:16 85.3 °F 50.4 °F 29.98 in Calm     30 % 0.00 in 895.00 W/m2
14:21 85.3 °F 53.0 °F 29.98 in South 7.0 mph 8.0 mph 33 % 0.00 in 886.00 W/m2
14:26 85.5 °F 52.3 °F 29.98 in Calm     32 % 0.00 in 881.00 W/m2
14:31 85.4 °F 53.9 °F 29.98 in SW 2.0 mph 5.0 mph 34 % 0.00 in 875.00 W/m2
14:36 85.4 °F 53.0 °F 29.98 in Calm   1.0 mph 33 % 0.00 in 870.00 W/m2
14:41 85.3 °F 51.3 °F 29.99 in Calm   7.0 mph 31 % 0.00 in 863.00 W/m2
14:46 85.0 °F 52.7 °F 29.98 in South 7.0 mph 11.0 mph 33 % 0.00 in 854.00 W/m2
14:51 85.0 °F 51.0 °F 29.98 in WSW 3.0 mph 9.0 mph 31 % 0.00 in 844.00 W/m2
14:56 84.5 °F 51.4 °F 29.98 in West 1.0 mph 5.0 mph 32 % 0.00 in 842.00 W/m2
15:01 84.1 °F 52.7 °F 29.98 in South 5.0 mph 10.0 mph 34 % 0.00 in 835.00 W/m2
15:06 84.0 °F 51.8 °F 29.98 in Calm   1.0 mph 33 % 0.00 in 824.00 W/m2
15:11 84.1 °F 51.9 °F 29.98 in Calm     33 % 0.00 in 812.00 W/m2
15:16 84.1 °F 51.9 °F 29.98 in SSW 9.0 mph 9.0 mph 33 % 0.00 in 805.00 W/m2
15:21 84.1 °F 51.9 °F 29.98 in SSW 6.0 mph 8.0 mph 33 % 0.00 in 795.00 W/m2
15:26 84.2 °F 52.8 °F 29.98 in Calm   4.0 mph 34 % 0.00 in 786.00 W/m2
15:32 84.1 °F 51.1 °F 29.98 in West 5.0 mph 6.0 mph 32 % 0.00 in 773.00 W/m2
15:37 83.8 °F 50.8 °F 29.98 in Calm   5.0 mph 32 % 0.00 in 765.00 W/m2
15:42 83.8 °F 50.8 °F 29.98 in Calm   6.0 mph 32 % 0.00 in 756.00 W/m2
15:47 83.8 °F 51.7 °F 29.98 in Calm   3.0 mph 33 % 0.00 in 740.00 W/m2
15:52 83.6 °F 52.3 °F 29.98 in WSW 5.0 mph 5.0 mph 34 % 0.00 in 731.00 W/m2
15:55 83.6 °F 51.5 °F 29.98 in SW 1.0 mph 8.0 mph 33 % 0.00 in 724.00 W/m2
16:00 83.4 °F 52.9 °F 29.97 in Calm   6.0 mph 35 % 0.00 in 712.00 W/m2
16:05 83.3 °F 51.2 °F 29.97 in WSW 5.0 mph 9.0 mph 33 % 0.00 in 703.00 W/m2
16:11 83.4 °F 51.3 °F 29.97 in Calm   10.0 mph 33 % 0.00 in 687.00 W/m2
16:16 83.3 °F 51.2 °F 29.97 in Calm     33 % 0.00 in 673.00 W/m2
16:21 83.4 °F 51.3 °F 29.97 in WSW 6.0 mph 6.0 mph 33 % 0.00 in 663.00 W/m2
16:26 83.5 °F 50.6 °F 29.97 in SW 6.0 mph 11.0 mph 32 % 0.00 in 649.00 W/m2
16:31 83.5 °F 51.4 °F 29.97 in SW 2.0 mph 10.0 mph 33 % 0.00 in 633.00 W/m2
16:36 83.5 °F 50.6 °F 29.97 in SSW 3.0 mph 8.0 mph 32 % 0.00 in 622.00 W/m2
16:41 83.4 °F 51.3 °F 29.97 in SSW 1.0 mph 8.0 mph 33 % 0.00 in 610.00 W/m2
16:46 83.5 °F 49.7 °F 29.97 in SSW 8.0 mph 10.0 mph 31 % 0.00 in 596.00 W/m2
16:51 83.5 °F 48.8 °F 29.96 in SW 11.0 mph 11.0 mph 30 % 0.00 in 582.00 W/m2
16:56 83.5 °F 48.8 °F 29.96 in Calm     30 % 0.00 in 568.00 W/m2
17:01 83.5 °F 48.8 °F 29.96 in Calm     30 % 0.00 in 550.00 W/m2
17:06 83.5 °F 48.8 °F 29.96 in SW 2.0 mph 8.0 mph 30 % 0.00 in 536.00 W/m2
17:11 83.4 °F 48.8 °F 29.95 in SW 3.0 mph 7.0 mph 30 % 0.00 in 524.00 W/m2
17:16 83.4 °F 50.5 °F 29.95 in Calm     32 % 0.00 in 506.00 W/m2
17:21 83.3 °F 51.2 °F 29.95 in SSW 3.0 mph 6.0 mph 33 % 0.00 in 490.00 W/m2
17:26 83.2 °F 52.7 °F 29.95 in Calm     35 % 0.00 in 475.00 W/m2
17:31 83.1 °F 52.6 °F 29.95 in West 3.0 mph 6.0 mph 35 % 0.00 in 462.00 W/m2
17:36 83.0 °F 52.6 °F 29.95 in West 3.0 mph 4.0 mph 35 % 0.00 in 445.00 W/m2
17:41 82.7 °F 51.5 °F 29.95 in WSW 8.0 mph 8.0 mph 34 % 0.00 in 431.00 W/m2
17:46 82.6 °F 50.6 °F 29.95 in WSW 1.0 mph 3.0 mph 33 % 0.00 in 417.00 W/m2
17:51 82.5 °F 51.3 °F 29.94 in WSW 4.0 mph 4.0 mph 34 % 0.00 in 406.00 W/m2
17:56 82.4 °F 49.6 °F 29.95 in WSW 2.0 mph 2.0 mph 32 % 0.00 in 388.00 W/m2
18:01 82.2 °F 50.3 °F 29.94 in Calm     33 % 0.00 in 373.00 W/m2
18:06 82.1 °F 49.3 °F 29.94 in Calm     32 % 0.00 in 355.00 W/m2
18:11 81.9 °F 52.3 °F 29.94 in West 1.0 mph 1.0 mph 36 % 0.00 in 339.00 W/m2
18:16 81.7 °F 52.2 °F 29.94 in Calm     36 % 0.00 in 325.00 W/m2
18:21 81.5 °F 52.0 °F 29.94 in Calm   3.0 mph 36 % 0.00 in 311.00 W/m2
18:26 81.4 °F 52.7 °F 29.94 in West 2.0 mph 2.0 mph 37 % 0.00 in 295.00 W/m2
18:31 81.2 °F 53.2 °F 29.94 in Calm     38 % 0.00 in 279.00 W/m2
18:36 81.1 °F 53.8 °F 29.94 in Calm     39 % 0.00 in 265.00 W/m2
18:41 80.9 °F 54.3 °F 29.94 in Calm     40 % 0.00 in 251.00 W/m2
18:46 80.6 °F 54.1 °F 29.94 in Calm   1.0 mph 40 % 0.00 in 236.00 W/m2
18:51 80.4 °F 54.6 °F 29.94 in Calm     41 % 0.00 in 220.00 W/m2
18:56 80.0 °F 54.9 °F 29.94 in Calm     42 % 0.00 in 204.00 W/m2
19:01 79.6 °F 55.2 °F 29.94 in Calm     43 % 0.00 in 188.00 W/m2
19:06 79.2 °F 54.8 °F 29.94 in Calm     43 % 0.00 in 174.00 W/m2
19:11 78.9 °F 55.8 °F 29.94 in Calm     45 % 0.00 in 156.00 W/m2
19:16 78.5 °F 56.0 °F 29.94 in Calm     46 % 0.00 in 142.00 W/m2
19:21 78.2 °F 55.8 °F 29.94 in Calm   1.0 mph 46 % 0.00 in 125.00 W/m2
19:26 77.8 °F 56.0 °F 29.94 in Calm     47 % 0.00 in 109.00 W/m2
19:31 77.4 °F 55.6 °F 29.94 in Calm     47 % 0.00 in 91.00 W/m2
19:36 77.1 °F 55.9 °F 29.94 in Calm     48 % 0.00 in 77.00 W/m2
19:41 76.7 °F 55.0 °F 29.94 in Calm     47 % 0.00 in 63.00 W/m2
19:46 76.4 °F 55.8 °F 29.94 in Calm     49 % 0.00 in 51.00 W/m2
19:51 76.0 °F 55.5 °F 29.94 in Calm   1.0 mph 49 % 0.00 in 40.00 W/m2
19:56 75.7 °F 55.2 °F 29.95 in Calm     49 % 0.00 in 33.00 W/m2
20:01 75.3 °F 54.8 °F 29.94 in Calm     49 % 0.00 in 26.00 W/m2
20:06 75.1 °F 54.7 °F 29.94 in Calm     49 % 0.00 in 19.00 W/m2
20:11 74.9 °F 54.5 °F 29.94 in Calm     49 % 0.00 in 18.00 W/m2
20:16 74.3 °F 53.9 °F 29.94 in Calm     49 % 0.00 in 14.00 W/m2
20:21 73.9 °F 53.6 °F 29.95 in Calm     49 % 0.00 in 12.00 W/m2
20:26 73.5 °F 53.2 °F 29.94 in Calm     49 % 0.00 in 9.00 W/m2
20:31 73.1 °F 52.8 °F 29.94 in Calm     49 % 0.00 in 7.00 W/m2
20:36 72.8 °F 52.5 °F 29.94 in Calm     49 % 0.00 in 5.00 W/m2
20:41 72.6 °F 52.4 °F 29.95 in Calm     49 % 0.00 in 0.00 W/m2
20:46 72.4 °F 52.2 °F 29.94 in Calm     49 % 0.00 in 0.00 W/m2
20:51 72.3 °F 52.1 °F 29.94 in Calm     49 % 0.00 in 0.00 W/m2
20:53 72.2 °F 52.0 °F 29.94 in Calm     49 % 0.00 in 0.00 W/m2
20:58 72.0 °F 51.8 °F 29.94 in Calm     49 % 0.00 in 0.00 W/m2
21:03 71.7 °F 52.1 °F 29.94 in Calm     50 % 0.00 in 0.00 W/m2
21:08 71.5 °F 51.9 °F 29.95 in Calm     50 % 0.00 in 0.00 W/m2
21:13 71.4 °F 51.3 °F 29.94 in Calm     49 % 0.00 in 0.00 W/m2
21:18 71.2 °F 51.1 °F 29.94 in Calm     49 % 0.00 in 0.00 W/m2
21:23 71.1 °F 51.5 °F 29.95 in Calm     50 % 0.00 in 0.00 W/m2
21:28 71.0 °F 50.9 °F 29.95 in Calm     49 % 0.00 in 0.00 W/m2
21:33 71.0 °F 51.5 °F 29.95 in Calm     50 % 0.00 in 0.00 W/m2
21:38 71.0 °F 50.9 °F 29.95 in Calm     49 % 0.00 in 0.00 W/m2
21:43 70.8 °F 51.3 °F 29.95 in Calm     50 % 0.00 in 0.00 W/m2
21:48 70.7 °F 51.2 °F 29.95 in Calm     50 % 0.00 in 0.00 W/m2
21:53 70.6 °F 50.5 °F 29.95 in Calm     49 % 0.00 in 0.00 W/m2
21:58 70.5 °F 50.4 °F 29.95 in Calm     49 % 0.00 in 0.00 W/m2
22:03 70.4 °F 50.3 °F 29.95 in Calm     49 % 0.00 in 0.00 W/m2
22:08 70.3 °F 50.8 °F 29.95 in Calm     50 % 0.00 in 0.00 W/m2
22:14 70.3 °F 50.8 °F 29.95 in Calm   1.0 mph 50 % 0.00 in 0.00 W/m2
22:19 70.3 °F 50.8 °F 29.95 in Calm   3.0 mph 50 % 0.00 in 0.00 W/m2
22:24 70.3 °F 51.3 °F 29.95 in WSW 2.0 mph 2.0 mph 51 % 0.00 in 0.00 W/m2
22:29 70.2 °F 51.2 °F 29.95 in WSW 3.0 mph 4.0 mph 51 % 0.00 in 0.00 W/m2
22:34 70.2 °F 51.2 °F 29.95 in Calm   4.0 mph 51 % 0.00 in 0.00 W/m2
22:39 70.2 °F 51.2 °F 29.95 in South 1.0 mph 5.0 mph 51 % 0.00 in 0.00 W/m2
22:44 70.1 °F 51.2 °F 29.95 in ESE 4.0 mph 7.0 mph 51 % 0.00 in 0.00 W/m2
22:49 70.1 °F 51.7 °F 29.95 in ESE 6.0 mph 6.0 mph 52 % 0.00 in 0.00 W/m2
22:54 70.1 °F 51.7 °F 29.95 in Calm   7.0 mph 52 % 0.00 in 0.00 W/m2
22:59 70.0 °F 51.6 °F 29.95 in ESE 7.0 mph 9.0 mph 52 % 0.00 in 0.00 W/m2
23:04 70.0 °F 51.6 °F 29.95 in East 1.0 mph 8.0 mph 52 % 0.00 in 0.00 W/m2
23:09 70.0 °F 51.6 °F 29.95 in East 2.0 mph 8.0 mph 52 % 0.00 in 0.00 W/m2
23:14 70.0 °F 51.6 °F 29.95 in Calm   8.0 mph 52 % 0.00 in 0.00 W/m2
23:19 70.0 °F 51.6 °F 29.95 in East 1.0 mph 9.0 mph 52 % 0.00 in 0.00 W/m2
23:24 70.0 °F 51.6 °F 29.95 in Calm   9.0 mph 52 % 0.00 in 0.00 W/m2
23:29 70.1 °F 52.2 °F 29.95 in Calm   9.0 mph 53 % 0.00 in 0.00 W/m2
23:34 70.1 °F 51.7 °F 29.95 in ESE 1.0 mph 11.0 mph 52 % 0.00 in 0.00 W/m2
23:39 70.1 °F 51.7 °F 29.95 in East 9.0 mph 12.0 mph 52 % 0.00 in 0.00 W/m2
23:44 70.1 °F 51.7 °F 29.95 in East 6.0 mph 11.0 mph 52 % 0.00 in 0.00 W/m2
23:49 70.1 °F 51.7 °F 29.95 in ESE 5.0 mph 9.0 mph 52 % 0.00 in 0.00 W/m2
23:55 70.1 °F 51.7 °F 29.95 in Calm   11.0 mph 52 % 0.00 in 0.00 W/m2
Juneau County Weather
Compliments of Weather Underground - 4.5 mb
 WU-history PHP script courtesy of   Juneau County Weather.
powered by Cumulus v1.9.3 (1059)
Ambient Weather VWS v14.00
Top Contact Website Map Copyright © 2007 - 2018 Foresthillweather.com Never base important decisions on this or any weather information obtained from the Internet